| time (UTC) | temp F | wind direction | speed MPH | gust MPH | rain 1hr in | rain 24hr in | rain mn in | humidity % | barometer mb |
| 20260505124043 | 62 | 121 | 1.0 | 4.0 | 0.00 | 0.00 | 0.00 | 61 | 1009.4 |
| 20260505123535 | 61 | 254 | 0.0 | 4.0 | 0.00 | 0.00 | 0.00 | 61 | 1009.4 |
| 20260505123027 | 61 | 109 | 1.0 | 3.0 | 0.00 | 0.00 | 0.00 | 62 | 1009.4 |
| 20260505122531 | 60 | 234 | 0.0 | 4.0 | 0.00 | 0.00 | 0.00 | 63 | 1009.4 |
| 20260505122025 | 60 | 107 | 2.0 | 5.0 | 0.00 | 0.00 | 0.00 | 61 | 1009.4 |
| 20260505121538 | 60 | 296 | 1.0 | 8.0 | 0.00 | 0.00 | 0.00 | 62 | 1009.5 |
| 20260505121023 | 60 | 132 | 2.0 | 5.0 | 0.00 | 0.00 | 0.00 | 61 | 1009.5 |
| 20260505120536 | 60 | 213 | 2.0 | 4.0 | 0.00 | 0.00 | 0.00 | 62 | 1009.4 |
| 20260505120028 | 59 | 179 | 1.0 | 5.0 | 0.00 | 0.00 | 0.00 | 63 | 1009.5 |
| 20260505115543 | 59 | 205 | 3.0 | 5.0 | 0.00 | 0.00 | 0.00 | 62 | 1009.4 |
| 20260505115035 | 59 | 178 | 1.0 | 3.0 | 0.00 | 0.00 | 0.00 | 64 | 1009.4 |
| 20260505114549 | 59 | 218 | 1.0 | 3.0 | 0.00 | 0.00 | 0.00 | 65 | 1009.5 |
| 20260505114036 | 58 | 304 | 1.0 | 3.0 | 0.00 | 0.00 | 0.00 | 65 | 1009.4 |
| 20260505113550 | 58 | 194 | 1.0 | 5.0 | 0.00 | 0.00 | 0.00 | 64 | 1009.5 |
| 20260505113041 | 58 | 146 | 1.0 | 5.0 | 0.00 | 0.00 | 0.00 | 65 | 1009.4 |
| 20260505112527 | 58 | 150 | 3.0 | 5.0 | 0.00 | 0.00 | 0.00 | 64 | 1009.3 |
| 20260505112039 | 57 | 180 | 2.0 | 4.0 | 0.00 | 0.00 | 0.00 | 66 | 1009.3 |
| 20260505111522 | 56 | 130 | 1.0 | 3.0 | 0.00 | 0.00 | 0.00 | 68 | 1009.1 |
| 20260505111035 | 56 | 227 | 0.0 | 3.0 | 0.00 | 0.00 | 0.00 | 67 | 1009.2 |
| 20260505110549 | 56 | 289 | 0.0 | 3.0 | 0.00 | 0.00 | 0.00 | 67 | 1009.2 |
| 20260505102037 | 53 | 220 | 1.0 | 3.0 | 0.00 | 0.00 | 0.00 | 71 | 1008.6 |
| 20260505101522 | 53 | 225 | 1.0 | 2.0 | 0.00 | 0.00 | 0.00 | 72 | 1008.5 |
| 20260505101034 | 52 | 216 | 0.0 | 6.0 | 0.00 | 0.00 | 0.00 | 72 | 1008.5 |
| 20260505100548 | 52 | 215 | 4.0 | 6.0 | 0.00 | 0.00 | 0.00 | 72 | 1008.4 |
| 20260505100034 | 52 | 232 | 0.0 | 4.0 | 0.00 | 0.00 | 0.00 | 73 | 1008.3 |
| 20260505095547 | 51 | 291 | 1.0 | 4.0 | 0.00 | 0.00 | 0.00 | 74 | 1008.3 |
| 20260505095059 | 51 | 256 | 1.0 | 2.0 | 0.00 | 0.00 | 0.00 | 75 | 1008.3 |
| 20260505094522 | 50 | 216 | 0.0 | 3.0 | 0.00 | 0.00 | 0.00 | 75 | 1008.2 |
| 20260505094035 | 49 | 216 | 2.0 | 3.0 | 0.00 | 0.00 | 0.00 | 77 | 1008.2 |
| 20260505093522 | 49 | 200 | 2.0 | 3.0 | 0.00 | 0.00 | 0.00 | 78 | 1008.2 |
| 20260505093035 | 48 | 217 | 2.0 | 3.0 | 0.00 | 0.00 | 0.00 | 78 | 1008.1 |
| 20260505092522 | 48 | 246 | 1.0 | 2.0 | 0.00 | 0.00 | 0.00 | 78 | 1008.2 |
| 20260505092036 | 49 | 248 | 0.0 | 2.0 | 0.00 | 0.00 | 0.00 | 77 | 1008.3 |
| 20260505091530 | 49 | 248 | 0.0 | 2.0 | 0.00 | 0.00 | 0.00 | 77 | 1008.3 |
| 20260505091033 | 49 | 248 | 1.0 | 2.0 | 0.00 | 0.00 | 0.00 | 77 | 1008.3 |
| 20260505090527 | 49 | 248 | 0.0 | 2.0 | 0.00 | 0.00 | 0.00 | 76 | 1008.3 |
| 20260505090042 | 50 | 248 | 1.0 | 3.0 | 0.00 | 0.00 | 0.00 | 76 | 1008.3 |
| 20260505085526 | 50 | 250 | 0.0 | 2.0 | 0.00 | 0.00 | 0.00 | 77 | 1008.4 |
| 20260505085101 | 50 | 252 | 1.0 | 2.0 | 0.00 | 0.00 | 0.00 | 76 | 1008.6 |
| 20260505084535 | 50 | 230 | 0.0 | 3.0 | 0.00 | 0.00 | 0.00 | 76 | 1008.6 |
| 20260505084041 | 50 | 328 | 1.0 | 3.0 | 0.00 | 0.00 | 0.00 | 76 | 1008.7 |
| 20260505083533 | 50 | 224 | 1.0 | 3.0 | 0.00 | 0.00 | 0.00 | 76 | 1008.7 |
| 20260505083046 | 49 | 227 | 1.0 | 3.0 | 0.00 | 0.00 | 0.00 | 76 | 1008.7 |
| 20260505082531 | 49 | 236 | 0.0 | 2.0 | 0.00 | 0.00 | 0.00 | 78 | 1008.8 |
| 20260505082046 | 48 | 236 | 0.0 | 3.0 | 0.00 | 0.00 | 0.00 | 77 | 1008.8 |
| 20260505081532 | 48 | 235 | 1.0 | 2.0 | 0.00 | 0.00 | 0.00 | 78 | 1008.7 |
| 20260505081046 | 48 | 239 | 0.0 | 2.0 | 0.00 | 0.00 | 0.00 | 78 | 1008.7 |
| 20260505080540 | 48 | 239 | 1.0 | 2.0 | 0.00 | 0.00 | 0.00 | 78 | 1008.7 |
| 20260505080025 | 48 | 239 | 0.0 | 3.0 | 0.00 | 0.00 | 0.00 | 79 | 1008.7 |
| 20260505075534 | 47 | 243 | 1.0 | 3.0 | 0.00 | 0.00 | 0.00 | 79 | 1008.7 |
| 20260505075048 | 47 | 244 | 1.0 | 4.0 | 0.00 | 0.00 | 0.00 | 79 | 1008.7 |
| 20260505074541 | 47 | 234 | 1.0 | 4.0 | 0.00 | 0.00 | 0.00 | 80 | 1008.6 |
| 20260505074026 | 47 | 281 | 0.0 | 2.0 | 0.00 | 0.00 | 0.00 | 80 | 1008.7 |
| 20260505073540 | 47 | 281 | 1.0 | 3.0 | 0.00 | 0.00 | 0.00 | 80 | 1008.6 |
| 20260505073025 | 47 | 282 | 1.0 | 3.0 | 0.00 | 0.00 | 0.00 | 80 | 1008.6 |
| 20260505072534 | 47 | 305 | 1.0 | 3.0 | 0.00 | 0.00 | 0.00 | 80 | 1008.6 |
| 20260505072047 | 47 | 305 | 0.0 | 3.0 | 0.00 | 0.00 | 0.00 | 80 | 1008.7 |
| 20260505071533 | 47 | 223 | 1.0 | 3.0 | 0.00 | 0.00 | 0.00 | 80 | 1008.6 |
| 20260505071046 | 47 | 224 | 1.0 | 3.0 | 0.00 | 0.00 | 0.00 | 80 | 1008.7 |
| 20260505070532 | 47 | 223 | 0.0 | 2.0 | 0.00 | 0.00 | 0.00 | 79 | 1008.7 |
| 20260505070047 | 47 | 223 | 0.0 | 1.0 | 0.00 | 0.00 | 0.00 | 79 | 1008.7 |
| 20260505065523 | 47 | 223 | 0.0 | 2.0 | 0.00 | 0.00 | 0.00 | 79 | 1008.8 |
| 20260505065028 | 47 | 223 | 1.0 | 2.0 | 0.00 | 0.00 | 0.00 | 79 | 1008.9 |
| 20260505064539 | 47 | 204 | 1.0 | 2.0 | 0.00 | 0.00 | 0.00 | 79 | 1008.9 |
| 20260505064024 | 47 | 184 | 0.0 | 2.0 | 0.00 | 0.00 | 0.00 | 79 | 1008.8 |
| 20260505063538 | 47 | 184 | 0.0 | 2.0 | 0.00 | 0.00 | 0.00 | 79 | 1008.8 |
| 20260505063031 | 47 | 184 | 0.0 | 2.0 | 0.00 | 0.00 | 0.00 | 79 | 1008.9 |
| 20260505062606 | 47 | 180 | 0.0 | 2.0 | 0.00 | 0.00 | 0.00 | 79 | 1008.9 |
| 20260505062030 | 47 | 180 | 0.0 | 1.0 | 0.00 | 0.00 | 0.00 | 80 | 1008.9 |
| 20260505061544 | 46 | 180 | 0.0 | 1.0 | 0.00 | 0.00 | 0.00 | 80 | 1008.9 |
| 20260505061038 | 46 | 180 | 0.0 | 1.0 | 0.00 | 0.00 | 0.00 | 80 | 1008.9 |
| 20260505060523 | 46 | 180 | 0.0 | 2.0 | 0.00 | 0.00 | 0.00 | 81 | 1009.0 |
| 20260505060037 | 45 | 180 | 0.0 | 2.0 | 0.00 | 0.00 | 0.00 | 82 | 1009.1 |
| 20260505055530 | 45 | 173 | 0.0 | 2.0 | 0.00 | 0.00 | 0.00 | 82 | 1009.0 |
| 20260505055035 | 45 | 173 | 0.0 | 2.0 | 0.00 | 0.00 | 0.00 | 82 | 1009.1 |
| 20260505054529 | 45 | 173 | 0.0 | 3.0 | 0.00 | 0.00 | 0.00 | 83 | 1009.1 |
| 20260505054030 | 44 | 172 | 0.0 | 3.0 | 0.00 | 0.00 | 0.00 | 83 | 1009.1 |
| 20260505053524 | 44 | 168 | 0.0 | 2.0 | 0.00 | 0.00 | 0.00 | 83 | 1009.3 |
| 20260505053039 | 44 | 160 | 0.0 | 2.0 | 0.00 | 0.00 | 0.00 | 82 | 1009.2 |
| 20260505052524 | 45 | 160 | 0.0 | 2.0 | 0.00 | 0.00 | 0.00 | 82 | 1009.3 |
| 20260505052038 | 45 | 149 | 0.0 | 2.0 | 0.00 | 0.00 | 0.00 | 82 | 1009.4 |
| 20260505051526 | 45 | 149 | 0.0 | 1.0 | 0.00 | 0.00 | 0.00 | 81 | 1009.5 |
| 20260505051040 | 45 | 148 | 0.0 | 1.0 | 0.00 | 0.00 | 0.00 | 81 | 1009.4 |
| 20260505050536 | 45 | 148 | 0.0 | 1.0 | 0.00 | 0.00 | 0.00 | 81 | 1009.5 |
| 20260505041528 | 46 | 148 | 0.0 | 2.0 | 0.00 | 0.00 | 0.00 | 77 | 1009.5 |
| 20260505041022 | 47 | 148 | 1.0 | 2.0 | 0.00 | 0.00 | 0.00 | 77 | 1009.4 |
| 20260505040537 | 47 | 148 | 0.0 | 1.0 | 0.00 | 0.00 | 0.00 | 77 | 1009.4 |
| 20260505040022 | 47 | 147 | 0.0 | 1.0 | 0.00 | 0.00 | 0.00 | 76 | 1009.4 |
| 20260505035537 | 47 | 147 | 0.0 | 1.0 | 0.00 | 0.00 | 0.00 | 76 | 1009.4 |
| 20260505035023 | 47 | 147 | 0.0 | 0.0 | 0.00 | 0.00 | 0.00 | 75 | 1009.5 |
| 20260505034532 | 48 | 148 | 0.0 | 2.0 | 0.00 | 0.00 | 0.00 | 75 | 1009.4 |
| 20260505034047 | 48 | 148 | 0.0 | 2.0 | 0.00 | 0.00 | 0.00 | 75 | 1009.4 |
| 20260505033553 | 48 | 146 | 0.0 | 1.0 | 0.00 | 0.00 | 0.00 | 74 | 1009.3 |
| 20260505033027 | 48 | 146 | 0.0 | 2.0 | 0.00 | 0.00 | 0.00 | 74 | 1009.3 |
| 20260505032542 | 49 | 146 | 0.0 | 2.0 | 0.00 | 0.00 | 0.00 | 74 | 1009.4 |
| 20260505032028 | 49 | 146 | 0.0 | 1.0 | 0.00 | 0.00 | 0.00 | 73 | 1009.4 |
| 20260505031543 | 49 | 146 | 0.0 | 1.0 | 0.00 | 0.00 | 0.00 | 73 | 1009.3 |
| 20260505031029 | 50 | 146 | 0.0 | 1.0 | 0.00 | 0.00 | 0.00 | 72 | 1009.4 |
| 20260505030543 | 50 | 146 | 0.0 | 1.0 | 0.00 | 0.00 | 0.00 | 71 | 1009.4 |
| 20260505030057 | 50 | 146 | 0.0 | 2.0 | 0.00 | 0.00 | 0.00 | 71 | 1009.3 |
| 20260505025531 | 50 | 146 | 1.0 | 2.0 | 0.00 | 0.00 | 0.00 | 71 | 1009.3 |
| 20260505025038 | 50 | 146 | 1.0 | 2.0 | 0.00 | 0.00 | 0.00 | 71 | 1009.2 |
| 20260505024531 | 50 | 146 | 1.0 | 2.0 | 0.00 | 0.00 | 0.00 | 70 | 1009.2 |
| 20260505024046 | 51 | 146 | 0.0 | 1.0 | 0.00 | 0.00 | 0.00 | 70 | 1009.2 |
| 20260505023553 | 51 | 146 | 0.0 | 1.0 | 0.00 | 0.00 | 0.00 | 69 | 1009.2 |
| 20260505023027 | 51 | 146 | 0.0 | 0.0 | 0.00 | 0.00 | 0.00 | 68 | 1009.1 |
| 20260505022602 | 52 | 146 | 0.0 | 1.0 | 0.00 | 0.00 | 0.00 | 68 | 1009.2 |
| 20260505022028 | 52 | 146 | 0.0 | 0.0 | 0.00 | 0.00 | 0.00 | 68 | 1009.2 |
| 20260505021539 | 52 | 146 | 0.0 | 0.0 | 0.00 | 0.00 | 0.00 | 66 | 1009.2 |
| 20260505021054 | 53 | 146 | 0.0 | 1.0 | 0.00 | 0.00 | 0.00 | 66 | 1009.3 |
| 20260505020548 | 53 | 146 | 0.0 | 1.0 | 0.00 | 0.00 | 0.00 | 65 | 1009.1 |
| 20260505020033 | 53 | 146 | 0.0 | 1.0 | 0.00 | 0.00 | 0.00 | 65 | 1009.1 |
| 20260505015548 | 54 | 146 | 1.0 | 1.0 | 0.00 | 0.00 | 0.00 | 64 | 1009.0 |
| 20260505015102 | 54 | 146 | 0.0 | 0.0 | 0.00 | 0.00 | 0.00 | 63 | 1008.9 |
| 20260505014527 | 54 | 146 | 0.0 | 2.0 | 0.00 | 0.00 | 0.00 | 62 | 1009.0 |
| 20260505014101 | 55 | 146 | 0.0 | 2.0 | 0.00 | 0.00 | 0.00 | 61 | 1009.0 |
| 20260505013535 | 55 | 138 | 0.0 | 1.0 | 0.00 | 0.00 | 0.00 | 61 | 1009.0 |
| 20260505013041 | 56 | 138 | 0.0 | 2.0 | 0.00 | 0.00 | 0.00 | 60 | 1008.8 |
| 20260505012536 | 56 | 138 | 0.0 | 2.0 | 0.00 | 0.00 | 0.00 | 60 | 1008.8 |
| 20260505012023 | 57 | 142 | 0.0 | 1.0 | 0.00 | 0.00 | 0.00 | 58 | 1008.7 |
| 20260505011538 | 57 | 142 | 0.0 | 1.0 | 0.00 | 0.00 | 0.00 | 58 | 1008.7 |
| 20260505011025 | 57 | 142 | 0.0 | 4.0 | 0.00 | 0.00 | 0.00 | 58 | 1008.7 |
| 20260505010540 | 57 | 142 | 1.0 | 4.0 | 0.00 | 0.00 | 0.00 | 57 | 1008.7 |
| 20260505010033 | 57 | 158 | 1.0 | 3.0 | 0.00 | 0.00 | 0.00 | 57 | 1008.5 |
| 20260505005608 | 56 | 159 | 1.0 | 3.0 | 0.00 | 0.00 | 0.00 | 58 | 1008.4 |
| 20260505005033 | 55 | 152 | 2.0 | 4.0 | 0.00 | 0.00 | 0.00 | 57 | 1008.3 |
| 20260505004526 | 55 | 173 | 1.0 | 2.0 | 0.00 | 0.00 | 0.00 | 58 | 1008.1 |
| 20260505004030 | 56 | 262 | 0.0 | 2.0 | 0.00 | 0.00 | 0.00 | 56 | 1008.0 |
| 20260505003558 | 56 | 263 | 0.0 | 2.0 | 0.00 | 0.00 | 0.00 | 56 | 1007.8 |
| 20260505003050 | 57 | 263 | 0.0 | 2.0 | 0.00 | 0.00 | 0.00 | 54 | 1007.7 |
| 20260505002542 | 57 | 263 | 0.0 | 2.0 | 0.00 | 0.00 | 0.00 | 52 | 1007.7 |
| 20260505002027 | 58 | 263 | 0.0 | 2.0 | 0.00 | 0.00 | 0.00 | 50 | 1007.6 |
| 20260505001540 | 59 | 263 | 0.0 | 2.0 | 0.00 | 0.00 | 0.00 | 52 | 1007.6 |
| 20260505001025 | 59 | 263 | 1.0 | 2.0 | 0.00 | 0.00 | 0.00 | 49 | 1007.6 |
| 20260505000537 | 60 | 264 | 0.0 | 1.0 | 0.00 | 0.00 | 0.00 | 49 | 1007.6 |
| 20260505000032 | 60 | 264 | 0.0 | 1.0 | 0.00 | 0.00 | 0.00 | 48 | 1007.5 |
| 20260504235535 | 61 | 264 | 0.0 | 1.0 | 0.00 | 0.00 | 0.00 | 46 | 1007.4 |
| 20260504235028 | 61 | 264 | 0.0 | 2.0 | 0.00 | 0.00 | 0.00 | 44 | 1007.4 |
| 20260504234532 | 62 | 226 | 0.0 | 2.0 | 0.00 | 0.00 | 0.00 | 45 | 1007.4 |
| 20260504234043 | 62 | 225 | 1.0 | 2.0 | 0.00 | 0.00 | 0.00 | 42 | 1007.3 |
| 20260504233554 | 62 | 226 | 0.0 | 1.0 | 0.00 | 0.00 | 0.00 | 42 | 1007.2 |
| 20260504233046 | 63 | 226 | 0.0 | 1.0 | 0.00 | 0.00 | 0.00 | 41 | 1007.2 |
| 20260504232529 | 63 | 226 | 0.0 | 4.0 | 0.00 | 0.00 | 0.00 | 41 | 1007.2 |
| 20260504232042 | 64 | 229 | 0.0 | 4.0 | 0.00 | 0.00 | 0.00 | 41 | 1007.2 |
| 20260504231550 | 64 | 222 | 2.0 | 4.0 | 0.00 | 0.00 | 0.00 | 39 | 1007.1 |
| 20260504231035 | 64 | 225 | 0.0 | 7.0 | 0.00 | 0.00 | 0.00 | 40 | 1007.0 |
| 20260504230544 | 64 | 184 | 3.0 | 7.0 | 0.00 | 0.00 | 0.00 | 38 | 1006.9 |
| 20260504230028 | 64 | 189 | 2.0 | 5.0 | 0.00 | 0.00 | 0.00 | 39 | 1006.8 |
| 20260504225524 | 64 | 172 | 2.0 | 5.0 | 0.00 | 0.00 | 0.00 | 38 | 1006.7 |
| 20260504225057 | 64 | 196 | 1.0 | 5.0 | 0.00 | 0.00 | 0.00 | 39 | 1006.6 |
| 20260504224523 | 65 | 169 | 1.0 | 4.0 | 0.00 | 0.00 | 0.00 | 38 | 1006.6 |
| 20260504224039 | 65 | 155 | 1.0 | 7.0 | 0.00 | 0.00 | 0.00 | 39 | 1006.7 |
| 20260504223526 | 65 | 236 | 2.0 | 7.0 | 0.00 | 0.00 | 0.00 | 37 | 1006.6 |
| 20260504223100 | 65 | 171 | 2.0 | 6.0 | 0.00 | 0.00 | 0.00 | 38 | 1006.6 |
| 20260504222533 | 65 | 176 | 0.0 | 4.0 | 0.00 | 0.00 | 0.00 | 37 | 1006.7 |
| 20260504222048 | 65 | 225 | 1.0 | 4.0 | 0.00 | 0.00 | 0.00 | 37 | 1006.7 |
| 20260504221533 | 65 | 123 | 2.0 | 8.0 | 0.00 | 0.00 | 0.00 | 37 | 1006.7 |
| 20260504221027 | 65 | 208 | 1.0 | 5.0 | 0.00 | 0.00 | 0.00 | 36 | 1006.8 |
| 20260504220531 | 66 | 176 | 3.0 | 6.0 | 0.00 | 0.00 | 0.00 | 36 | 1006.9 |
| 20260504220024 | 66 | 189 | 2.0 | 7.0 | 0.00 | 0.00 | 0.00 | 36 | 1006.9 |
| 20260504215540 | 66 | 186 | 3.0 | 7.0 | 0.00 | 0.00 | 0.00 | 37 | 1006.9 |
| 20260504215025 | 67 | 190 | 2.0 | 5.0 | 0.00 | 0.00 | 0.00 | 36 | 1006.9 |
| 20260504214559 | 67 | 133 | 2.0 | 7.0 | 0.00 | 0.00 | 0.00 | 36 | 1006.9 |
| 20260504214024 | 67 | 142 | 2.0 | 7.0 | 0.00 | 0.00 | 0.00 | 36 | 1006.9 |
| 20260504213605 | 67 | 271 | 2.0 | 5.0 | 0.00 | 0.00 | 0.00 | 37 | 1006.9 |
| 20260504213029 | 66 | 297 | 2.0 | 4.0 | 0.00 | 0.00 | 0.00 | 38 | 1006.8 |
| 20260504212540 | 65 | 71 | 2.0 | 4.0 | 0.00 | 0.00 | 0.00 | 38 | 1006.9 |
| 20260504212027 | 65 | 131 | 1.0 | 8.0 | 0.00 | 0.00 | 0.00 | 37 | 1007.0 |
| 20260504211541 | 65 | 234 | 2.0 | 8.0 | 0.00 | 0.00 | 0.00 | 37 | 1007.0 |
| 20260504211056 | 65 | 113 | 2.0 | 5.0 | 0.00 | 0.00 | 0.00 | 37 | 1007.0 |
| 20260504210550 | 65 | 110 | 1.0 | 7.0 | 0.00 | 0.00 | 0.00 | 37 | 1007.1 |
| 20260504210037 | 66 | 275 | 1.0 | 5.0 | 0.00 | 0.00 | 0.00 | 37 | 1007.2 |
| 20260504205550 | 66 | 140 | 2.0 | 6.0 | 0.00 | 0.00 | 0.00 | 37 | 1007.1 |
| 20260504205105 | 66 | 302 | 1.0 | 6.0 | 0.00 | 0.00 | 0.00 | 38 | 1007.2 |
| 20260504204530 | 66 | 153 | 1.0 | 4.0 | 0.00 | 0.00 | 0.00 | 37 | 1007.1 |
| 20260504204045 | 65 | 209 | 1.0 | 7.0 | 0.00 | 0.00 | 0.00 | 36 | 1007.2 |
| 20260504203531 | 66 | 188 | 3.0 | 7.0 | 0.00 | 0.00 | 0.00 | 37 | 1007.0 |
| 20260504203024 | 66 | 151 | 2.0 | 7.0 | 0.00 | 0.00 | 0.00 | 37 | 1007.1 |
| 20260504202530 | 66 | 132 | 3.0 | 8.0 | 0.00 | 0.00 | 0.00 | 37 | 1007.0 |
| 20260504202023 | 66 | 215 | 2.0 | 8.0 | 0.00 | 0.00 | 0.00 | 37 | 1007.1 |
| 20260504201536 | 66 | 225 | 3.0 | 8.0 | 0.00 | 0.00 | 0.00 | 38 | 1007.2 |
| 20260504201040 | 65 | 145 | 3.0 | 5.0 | 0.00 | 0.00 | 0.00 | 36 | 1007.2 |
| 20260504200535 | 65 | 224 | 2.0 | 5.0 | 0.00 | 0.00 | 0.00 | 37 | 1007.3 |
| 20260504200050 | 65 | 186 | 2.0 | 5.0 | 0.00 | 0.00 | 0.00 | 38 | 1007.2 |
| 20260504195536 | 66 | 205 | 3.0 | 8.0 | 0.00 | 0.00 | 0.00 | 35 | 1007.3 |
| 20260504195050 | 67 | 218 | 3.0 | 16.0 | 0.00 | 0.00 | 0.00 | 36 | 1007.3 |
| 20260504194534 | 67 | 214 | 4.0 | 16.0 | 0.00 | 0.00 | 0.00 | 35 | 1007.4 |
| 20260504194029 | 68 | 234 | 4.0 | 8.0 | 0.00 | 0.00 | 0.00 | 34 | 1007.4 |
| 20260504193535 | 68 | 227 | 2.0 | 8.0 | 0.00 | 0.00 | 0.00 | 37 | 1007.3 |
| 20260504193027 | 68 | 193 | 2.0 | 9.0 | 0.00 | 0.00 | 0.00 | 34 | 1007.1 |
| 20260504192537 | 68 | 175 | 3.0 | 9.0 | 0.00 | 0.00 | 0.00 | 36 | 1007.2 |
| 20260504192023 | 68 | 329 | 3.0 | 8.0 | 0.00 | 0.00 | 0.00 | 35 | 1007.2 |
| 20260504191538 | 68 | 127 | 2.0 | 7.0 | 0.00 | 0.00 | 0.00 | 36 | 1007.3 |
| 20260504191023 | 67 | 331 | 5.0 | 7.0 | 0.00 | 0.00 | 0.00 | 35 | 1007.4 |
| 20260504190537 | 67 | 147 | 2.0 | 8.0 | 0.00 | 0.00 | 0.00 | 36 | 1007.3 |
| 20260504190052 | 68 | 327 | 2.0 | 8.0 | 0.00 | 0.00 | 0.00 | 35 | 1007.2 |
| 20260504185546 | 67 | 329 | 2.0 | 7.0 | 0.00 | 0.00 | 0.00 | 37 | 1007.3 |
| 20260504185031 | 66 | 293 | 3.0 | 7.0 | 0.00 | 0.00 | 0.00 | 35 | 1007.3 |
| 20260504184544 | 67 | 225 | 3.0 | 8.0 | 0.00 | 0.00 | 0.00 | 35 | 1007.3 |
| 20260504184028 | 67 | 133 | 4.0 | 8.0 | 0.00 | 0.00 | 0.00 | 35 | 1007.3 |
| 20260504183541 | 67 | 167 | 4.0 | 10.0 | 0.00 | 0.00 | 0.00 | 36 | 1007.3 |
| 20260504183025 | 67 | 172 | 4.0 | 10.0 | 0.00 | 0.00 | 0.00 | 36 | 1007.5 |
| 20260504182539 | 67 | 226 | 3.0 | 9.0 | 0.00 | 0.00 | 0.00 | 36 | 1007.6 |
| 20260504182033 | 67 | 217 | 2.0 | 8.0 | 0.00 | 0.00 | 0.00 | 37 | 1007.6 |
| 20260504181538 | 66 | 167 | 4.0 | 8.0 | 0.00 | 0.00 | 0.00 | 36 | 1007.6 |
| 20260504181031 | 67 | 179 | 3.0 | 6.0 | 0.00 | 0.00 | 0.00 | 39 | 1007.7 |
| 20260504180546 | 66 | 227 | 2.0 | 5.0 | 0.00 | 0.00 | 0.00 | 38 | 1007.8 |
| 20260504180031 | 65 | 220 | 2.0 | 4.0 | 0.00 | 0.00 | 0.00 | 37 | 1007.8 |
| 20260504175545 | 64 | 163 | 1.0 | 5.0 | 0.00 | 0.00 | 0.00 | 40 | 1007.8 |
| 20260504175030 | 64 | 229 | 2.0 | 6.0 | 0.00 | 0.00 | 0.00 | 39 | 1007.9 |
| 20260504174542 | 63 | 203 | 2.0 | 7.0 | 0.00 | 0.00 | 0.00 | 40 | 1007.9 |
| 20260504174028 | 64 | 180 | 4.0 | 7.0 | 0.00 | 0.00 | 0.00 | 38 | 1008.0 |
| 20260504173541 | 64 | 155 | 3.0 | 10.0 | 0.00 | 0.00 | 0.00 | 38 | 1008.2 |
| 20260504173053 | 64 | 182 | 6.0 | 10.0 | 0.00 | 0.00 | 0.00 | 38 | 1008.3 |
| 20260504172547 | 65 | 191 | 3.0 | 9.0 | 0.00 | 0.00 | 0.00 | 36 | 1008.3 |
| 20260504172033 | 65 | 195 | 3.0 | 9.0 | 0.00 | 0.00 | 0.00 | 36 | 1008.4 |
| 20260504171528 | 65 | 222 | 2.0 | 7.0 | 0.00 | 0.00 | 0.00 | 38 | 1008.3 |
| 20260504171101 | 64 | 327 | 3.0 | 8.0 | 0.00 | 0.00 | 0.00 | 39 | 1008.2 |
| 20260504170525 | 64 | 317 | 2.0 | 8.0 | 0.00 | 0.00 | 0.00 | 37 | 1008.2 |
| 20260504151028 | 60 | 195 | 2.0 | 7.0 | 0.00 | 0.00 | 0.00 | 43 | 1009.4 |
| 20260504150523 | 59 | 253 | 2.0 | 7.0 | 0.00 | 0.00 | 0.00 | 41 | 1009.4 |
| 20260504141030 | 58 | 203 | 3.0 | 8.0 | 0.00 | 0.00 | 0.00 | 45 | 1009.7 |
| 20260504140523 | 57 | 193 | 3.0 | 6.0 | 0.00 | 0.00 | 0.00 | 43 | 1009.7 |
| 20260504130522 | 54 | 243 | 2.0 | 7.0 | 0.00 | 0.00 | 0.00 | 51 | 1010.0 |